Weather History for Fryeburg, ME

Change the Weather History Date:

Friday, February 22, 2013

  Actual Average Record
Temperature  
Mean Temperature 28 °F -  
Max Temperature 37 °F 33 °F 64 °F (1997)
Min Temperature 18 °F 9 °F -8 °F (2011)
Degree Days  
Heating Degree Days 38    
Moisture  
Dew Point 17 °F    
Average Humidity 60    
Maximum Humidity 81    
Minimum Humidity 41    
Precipitation  
Precipitation 0.00 in - - ()
Sea Level Pressure  
Sea Level Pressure 30.33 in    
Wind  
Wind Speed 4 mph (NNW)    
Max Wind Speed 10 mph    
Max Gust Speed -    
Visibility 10 miles    
Events      
Averages and records for this station are not official NWS values.
T = Trace of Precipitation, MM = Missing Value Source: NWS Daily Summary

Daily Weather History Graph

Daily Weather History Graph

Search for Another Location

Airport:

Trip Planner

Search our weather history database for the weather conditions in past years. The results will help you decide how hot, cold, wet, or windy it might be!

Date:

Astronomy

Feb. 22, 2013 Rise Set
Actual Time 6:31 AM EST 5:23 PM EST
Civil Twilight 6:02 AM EST 5:52 PM EST
Nautical Twilight 5:29 AM EST 6:26 PM EST
Astronomical Twilight 4:55 AM EST 6:59 PM EST
Moon 2:27 PM EST (2/22) 4:19 AM EST (2/22)
Length of Visible Light 11h 49m
Length of Day
10h 51m
Waxing Gibbous, 90% of the Moon is Illuminated
Feb 22
Waxing Gibbous
Feb 25
Full
Mar 4
Last Quarter
Mar 11
New
Mar 19
First Quarter

Hourly Weather History & Observations

Time (EST) Temp. Windchill Dew Point Humidity Pressure Visibility Wind Dir Wind Speed Gust Speed Precip Events Conditions
12:54 AM 26.1 °F 20.5 °F 17.1 °F 69% 30.23 in 10.0 mi NW 4.6 mph - N/A   Clear
1:54 AM 21.9 °F 17.2 °F 15.1 °F 75% 30.26 in 10.0 mi NW 3.5 mph - N/A   Clear
2:54 AM 25.0 °F 18.1 °F 17.1 °F 72% 30.27 in 10.0 mi Variable 5.8 mph - N/A   Overcast
3:54 AM 28.0 °F 20.8 °F 17.1 °F 63% 30.28 in 10.0 mi NNW 6.9 mph - N/A   Clear
4:54 AM 27.0 °F 20.5 °F 16.0 °F 63% 30.30 in 10.0 mi NW 5.8 mph - N/A   Clear
5:54 AM 26.1 °F 20.5 °F 16.0 °F 66% 30.32 in 10.0 mi NNW 4.6 mph - N/A   Clear
6:54 AM 18.0 °F 8.7 °F 12.9 °F 81% 30.36 in 10.0 mi SSW 6.9 mph - N/A   Clear
7:54 AM 27.0 °F - 16.0 °F 63% 30.39 in 10.0 mi Calm Calm - N/A   Clear
8:54 AM 32.0 °F 25.6 °F 16.0 °F 52% 30.41 in 10.0 mi NNW 6.9 mph - 0.00 in   Clear
9:54 AM 33.1 °F 25.5 °F 16.0 °F 50% 30.38 in 10.0 mi North 9.2 mph - 0.00 in   Clear
10:54 AM 35.1 °F 27.4 °F 17.1 °F 48% 30.38 in 10.0 mi North 10.4 mph - 0.00 in   Clear
11:54 AM 36.0 °F 32.1 °F 16.0 °F 44% 30.36 in 10.0 mi NNE 4.6 mph - 0.00 in   Clear
12:54 PM 37.0 °F - 17.1 °F 44% 30.35 in 10.0 mi Calm Calm - N/A   Clear
1:54 PM 37.9 °F - 16.0 °F 41% 30.33 in 10.0 mi Calm Calm - N/A   Clear
2:54 PM 37.9 °F - 16.0 °F 41% 30.32 in 10.0 mi Calm Calm - N/A   Clear
3:54 PM 37.9 °F - 17.1 °F 43% 30.33 in 10.0 mi Calm Calm - N/A   Clear
4:54 PM 37.0 °F - 16.0 °F 42% 30.32 in 10.0 mi Calm Calm - N/A   Clear
5:54 PM 30.0 °F - 18.0 °F 61% 30.32 in 10.0 mi Calm Calm - N/A   Clear
6:54 PM 27.0 °F - 18.0 °F 69% 30.34 in 10.0 mi Calm Calm - N/A   Clear
7:54 PM 27.0 °F - 18.0 °F 69% 30.34 in 10.0 mi Calm Calm - N/A   Clear
8:54 PM 25.0 °F - 18.0 °F 75% 30.35 in 10.0 mi Calm Calm - N/A   Clear
9:54 PM 27.0 °F - 19.0 °F 72% 30.34 in 10.0 mi Calm Calm - N/A   Clear
10:54 PM 27.0 °F - 18.0 °F 69% 30.34 in 10.0 mi Calm Calm - N/A   Clear
11:54 PM 24.1 °F - 18.0 °F 77% 30.34 in 10.0 mi Calm Calm - N/A   Clear